Location: Winnipeg
(49.8830°N, 97.1670°W)
Time: 07:43:23
(UTC-06:00)

X-37B - Pass Details

Date: 16 December 2022
Orbit: 277 x 277 km, 45.0° (Epoch: 01 November)

Event Time Altitude Azimuth Distance (km) Brightness Sun altitude
Rises 17:32:21 0° 261° (W) 1,916 5.8 -9.8°
Reaches altitude 10° 17:34:29 10° 245° (WSW) 1,102 4.5 -10.1°
Maximum altitude 17:36:29 22° 190° (S) 674 2.2 -10.4°
Drops below altitude 10° 17:38:29 10° 135° (SE) 1,100 2.7 -10.7°
Enters shadow 17:39:16 - 127° (SE) 1,387 3.1 -10.8°
